Time,TemperatureF,DewpointF,PressureIn,WindDirection,WindDirectionDegrees,WindSpeedMPH,WindSpeedGustMPH,Humidity,HourlyPrecipIn,Conditions,Clouds,dailyrainin,SoftwareType,DateUTC
2013-03-23 00:00:00,10.0,-99.9,-100.00,North,-999,-999.0,-999.0,-999,-99.99,,,-99.99,,2013-03-23 07:00:00,
2013-03-23 00:53:00,10.0,-99.9,-100.00,North,-999,-999.0,-999.0,-999,-99.99,,,-99.99,,2013-03-23 07:53:00,
2013-03-23 03:00:00,8.0,-99.9,-100.00,ENE,59,4.0,9.0,-999,-99.99,,,-99.99,,2013-03-23 10:00:00,
2013-03-23 04:00:00,8.0,-99.9,-100.00,NE,48,3.0,7.0,-999,-99.99,,,-99.99,,2013-03-23 11:00:00,
2013-03-23 05:00:00,5.0,-99.9,-100.00,North,-999,-999.0,-999.0,-999,-99.99,,,-99.99,,2013-03-23 12:00:00,
2013-03-23 05:53:00,5.0,-99.9,-100.00,North,-999,-999.0,-999.0,-999,-99.99,,,-99.99,,2013-03-23 12:53:00,
2013-03-23 06:00:00,4.0,-99.9,-100.00,North,-999,-999.0,-999.0,-999,-99.99,,,-99.99,,2013-03-23 13:00:00,
2013-03-23 06:54:00,4.0,-99.9,-100.00,North,-999,-999.0,-999.0,-999,-99.99,,,-99.99,,2013-03-23 13:54:00,
2013-03-23 07:00:00,7.0,-99.9,-100.00,NE,37,5.0,8.0,-999,-99.99,,,-99.99,,2013-03-23 14:00:00,
2013-03-23 08:00:00,10.0,-99.9,-100.00,NNE,33,5.0,8.0,-999,-99.99,,,-99.99,,2013-03-23 15:00:00,
2013-03-23 09:00:00,14.0,-99.9,-100.00,NNE,28,4.0,6.0,-999,-99.99,,,-99.99,,2013-03-23 16:00:00,
2013-03-23 10:00:00,17.0,-99.9,-100.00,NNE,18,5.0,8.0,-999,-99.99,,,-99.99,,2013-03-23 17:00:00,
2013-03-23 11:00:00,20.0,-99.9,-100.00,North,11,5.0,7.0,-999,-99.99,,,0.00,,2013-03-23 18:00:00,
2013-03-23 12:00:00,27.0,-99.9,-100.00,North,-999,-999.0,-999.0,-999,-99.99,,,0.00,,2013-03-23 19:00:00,
2013-03-23 12:53:00,27.0,-99.9,-100.00,North,-999,-999.0,-999.0,-999,-99.99,,,0.00,,2013-03-23 19:53:00,
2013-03-23 13:00:00,29.0,-99.9,-100.00,SSE,160,3.0,9.0,-999,-99.99,,,0.00,,2013-03-23 20:00:00,
2013-03-23 14:00:00,26.0,-99.9,-100.00,SSW,211,3.0,9.0,-999,-99.99,,,0.00,,2013-03-23 21:00:00,
2013-03-23 15:00:00,25.0,-99.9,-100.00,NNE,31,4.0,9.0,-999,-99.99,,,-99.99,,2013-03-23 22:00:00,
2013-03-23 16:00:00,25.0,-99.9,-100.00,NE,53,6.0,11.0,-999,-99.99,,,0.00,,2013-03-23 23:00:00,
2013-03-23 17:00:00,24.0,-99.9,-100.00,SE,146,5.0,10.0,-999,-99.99,,,0.00,,2013-03-24 00:00:00,
2013-03-23 18:00:00,23.0,-99.9,-100.00,South,169,4.0,9.0,-999,-99.99,,,0.00,,2013-03-24 01:00:00,
2013-03-23 19:00:00,17.0,-99.9,-100.00,South,185,2.0,6.0,-999,-99.99,,,0.00,,2013-03-24 02:00:00,
2013-03-23 20:00:00,13.0,-99.9,-100.00,East,100,1.0,6.0,-999,-99.99,,,0.00,,2013-03-24 03:00:00,
2013-03-23 21:00:00,13.0,-99.9,-100.00,ENE,76,3.0,6.0,-999,-99.99,,,0.00,,2013-03-24 04:00:00,
2013-03-23 23:00:00,12.0,-99.9,-100.00,NE,41,5.0,7.0,-999,-99.99,,,0.01,,2013-03-24 06:00:00,